"Pseudo-MPEC" for ZKA8EAD

Created 2018 May 18 14:18:22 UT using Find_Orb

Click here for an explanation of pseudo-MPECs

 
 Astrometry: 
     ZKA8EAD  C2018 05 17.33896 16 18 30.84 +02 11 18.1          20.0 GUNEOCPG96
     ZKA8EAD  C2018 05 17.34420 16 18 30.30 +02 11 12.9          19.9 GUNEOCPG96
     ZKA8EAD  C2018 05 17.34947 16 18 29.75 +02 11 08.1          20.0 GUNEOCPG96
     ZKA8EAD  C2018 05 17.35473 16 18 29.22 +02 11 03.5          20.0 GUNEOCPG96
     ZKA8EAD  C2018 05 17.40626 16 18 23.91 +02 10 14.8          19.9 GUNEOCPI52
     ZKA8EAD  C2018 05 17.41015 16 18 23.49 +02 10 11.6          19.7 GUNEOCPI52
     ZKA8EAD  C2018 05 17.41403 16 18 23.10 +02 10 07.9          19.8 GUNEOCPI52
     ZKA8EAD  C2018 05 17.41791 16 18 22.68 +02 10 03.8          19.9 GUNEOCPI52
     ZKA8EAD KC2018 05 18?.Astrometry$,,_(`/4HCqNOORpnM66#@_T7^c9#K=cWWkrftcQL01
     ZKA8EAD KC2018 05 18HmTcN\e_@$m1B,O6credacted;SM2d^*xXnP'a05$_qX$1R(X%dmL01
     ZKA8EAD KC2018 05 18;NGH!33sq=rPeH12F_qr=O)pXah]5xT\seeF/J3(A+Kp\wi]\:USL01
     ZKA8EAD pC2018 05 18j8#HSk_Y7g=7PgKY.V3ZjpWYSmsbGcTJebp$uvocm-mZ2LCNEOCPL01
     ZKA8EAD  C2018 05 18.43988 16 16 40.50 +01 53 50.5          19.6 GUNEOCPI52
     ZKA8EAD  C2018 05 18.44302 16 16 40.16 +01 53 46.9          19.7 GUNEOCPI52
     ZKA8EAD  C2018 05 18.44575 16 16 39.88 +01 53 44.8          19.2 GUNEOCPI52
     ZKA8EAD  C2018 05 18.44797 16 16 39.67 +01 53 42.7          19.6 GUNEOCPI52

Station data:
(G96) Mt. Lemmon Survey  (N32.442754 W110.788720)  US/Arizona.  Observers E.
   J. Christensen, A. R. Gibbs, A. D. Grauer, R. E. Hill, J. A. Johnson, R.
   A. Kowalski, S. M. Larson, F. C. Shelly. 1.5-m reflector + CCD.
(I52) Steward Observatory, Mt. Lemmon Station  (N32.442547 W110.788920)
   US/Arizona.
(L01) Višnjan Observatory, Tičan  (N45.290900 E13.749300)  Croatia.

Orbital elements:  ZKA8EAD
   Perihelion 2018 Mar 11.467506 +/- 140 TT = 11:13:12 (JD 2458188.967506)
Epoch 2018 May 18.0 TT = JDT 2458256.5   Earth MOID: 0.7276   AutoNEOCP
M  28.19295 +/- 52                  (J2000 ecliptic)
n   0.41747239 +/- 0.0887           Peri.  125.60827 +/- 70
a   1.77303595 +/- 0.25             Node    81.66060 +/- 4.9
e   0.0270171 +/- 0.106             Incl.   24.10885 +/- 7
P   2.36/862.32d           H 18.8   G  0.15   U 11.1  SR
q 1.72513361 +/- 0.192    Q 1.82093829 +/- 0.574
From 16 observations 2018 May 17-18 (26.6 hr); mean residual 0".23
Residuals in arcseconds: 
180517 G96  .09-  .04+    180517 I52  .02+  .20+    180518 I52  .11-  .09+    
180517 G96  .07-  .26-    180517 I52  .29-  .25-    180518 I52  .32-  .47-    
180517 G96  .15-  .12-    180518 L01  .54+  .29-    180518 I52  .28-  .07+    
180517 G96  .05+  .20+    180518 L01  .07+  .03-    180518 I52  .02+  .12+    
180517 I52  .17+  .19-    180518 L01  .35+  .33+    
180517 I52  .12-  .26+    180518 L01  .18+  .29+    

Ephemerides (geocentric):
Date (UTC) HH   RA              Dec         delta   r     elong  mag " sig PA
---- -- -- --  ------------   ------------  ------ ------ -----  --- ---- ---
2018 05 18 14  16 16 26.496   +01 51 37.32  .75496 1.7312 156.8 20.2  2.4 141
2018 05 18 15  16 16 22.301   +01 50 56.83  .75489 1.7312 156.8 20.2  2.6 143
2018 05 18 16  16 16 18.105   +01 50 16.28  .75481 1.7312 156.9 20.2  2.8 145
2018 05 18 17  16 16 13.907   +01 49 35.69  .75474 1.7312 156.9 20.2  3.1 147
2018 05 18 18  16 16 09.707   +01 48 55.05  .75466 1.7312 156.9 20.2  3.4 148
2018 05 18 19  16 16 05.505   +01 48 14.36  .75459 1.7313 156.9 20.1  3.7 149
2018 05 18 20  16 16 01.302   +01 47 33.62  .75451 1.7313 156.9 20.1  4.0 149
2018 05 18 21  16 15 57.096   +01 46 52.83  .75444 1.7313 157.0 20.1  4.4 149
2018 05 18 22  16 15 52.889   +01 46 11.99  .75436 1.7313 157.0 20.1  4.8 150
2018 05 18 23  16 15 48.680   +01 45 31.10  .75429 1.7313 157.0 20.1  5.2 150
2018 05 19 00  16 15 44.470   +01 44 50.16  .75422 1.7313 157.0 20.1  5.6 150
2018 05 19 01  16 15 40.257   +01 44 09.18  .75415 1.7313 157.1 20.1  6.0 150
2018 05 19 02  16 15 36.043   +01 43 28.14  .75407 1.7313 157.1 20.1  6.5 150
2018 05 19 03  16 15 31.827   +01 42 47.06  .75400 1.7313 157.1 20.1  7.0 150
2018 05 19 04  16 15 27.610   +01 42 05.93  .75393 1.7313 157.1 20.1  7.5 150
2018 05 19 05  16 15 23.391   +01 41 24.75  .75386 1.7313 157.2 20.1  8.0 150
2018 05 19 06  16 15 19.170   +01 40 43.52  .75379 1.7313 157.2 20.1  8.6 150
2018 05 19 07  16 15 14.947   +01 40 02.24  .75372 1.7313 157.2 20.1  9.1 150
2018 05 19 08  16 15 10.723   +01 39 20.92  .75365 1.7313 157.2 20.1  9.7 150
2018 05 19 09  16 15 06.497   +01 38 39.54  .75358 1.7314 157.2 20.1 10.3 150
2018 05 19 10  16 15 02.270   +01 37 58.12  .75351 1.7314 157.3 20.1 11.0 149
2018 05 19 11  16 14 58.041   +01 37 16.65  .75345 1.7314 157.3 20.1 11.6 149
2018 05 19 12  16 14 53.810   +01 36 35.13  .75338 1.7314 157.3 20.1 12.3 149
2018 05 19 13  16 14 49.577   +01 35 53.56  .75331 1.7314 157.3 20.1 12.9 149
2018 05 19 14  16 14 45.344   +01 35 11.94  .75324 1.7314 157.4 20.1 13.6 149
2018 05 19 15  16 14 41.108   +01 34 30.28  .75318 1.7314 157.4 20.1 14.3 149
2018 05 19 16  16 14 36.871   +01 33 48.56  .75311 1.7314 157.4 20.1 15.1 149
2018 05 19 17  16 14 32.632   +01 33 06.80  .75304 1.7314 157.4 20.1 15.8 149
2018 05 19 18  16 14 28.392   +01 32 24.99  .75298 1.7314 157.4 20.1 16.6 149
2018 05 19 19  16 14 24.150   +01 31 43.13  .75291 1.7314 157.5 20.1 17.4 149
2018 05 19 20  16 14 19.907   +01 31 01.23  .75285 1.7314 157.5 20.1 18.2 149
2018 05 19 21  16 14 15.662   +01 30 19.27  .75278 1.7314 157.5 20.1 19.0 149
2018 05 19 22  16 14 11.416   +01 29 37.27  .75272 1.7315 157.5 20.1 19.9 148
2018 05 19 23  16 14 07.168   +01 28 55.22  .75266 1.7315 157.6 20.1 20.7 148
2018 05 20 00  16 14 02.919   +01 28 13.12  .75259 1.7315 157.6 20.1 21.6 148
2018 05 20 01  16 13 58.669   +01 27 30.98  .75253 1.7315 157.6 20.1 22.5 148
2018 05 20 02  16 13 54.416   +01 26 48.79  .75247 1.7315 157.6 20.1 23.4 148
2018 05 20 03  16 13 50.163   +01 26 06.54  .75241 1.7315 157.6 20.1 24.4 148
2018 05 20 04  16 13 45.908   +01 25 24.25  .75235 1.7315 157.7 20.1 25.3 148
2018 05 20 05  16 13 41.651   +01 24 41.92  .75229 1.7315 157.7 20.1 26.3 148
2018 05 20 06  16 13 37.394   +01 23 59.53  .75222 1.7315 157.7 20.1 27.3 148
2018 05 20 07  16 13 33.134   +01 23 17.10  .75216 1.7315 157.7 20.1 28.3 148
2018 05 20 08  16 13 28.874   +01 22 34.62  .75210 1.7315 157.7 20.1 29.3 148
2018 05 20 09  16 13 24.612   +01 21 52.09  .75204 1.7315 157.8 20.1 30.4 148
2018 05 20 10  16 13 20.348   +01 21 09.52  .75199 1.7315 157.8 20.1 31.4 148
2018 05 20 11  16 13 16.084   +01 20 26.90  .75193 1.7315 157.8 20.1 32.5 148
2018 05 20 12  16 13 11.818   +01 19 44.23  .75187 1.7316 157.8 20.1 33.6 148
2018 05 20 13  16 13 07.550   +01 19 01.51  .75181 1.7316 157.8 20.1 34.7 148